Theta_e
284 284 281 280 281 283 283 281 281 283 284 284 284 285 285 287 286 285 286 287 285 283 283 282 282 282 283 288 292 293 295 296 296 297 297 297 298 298 298 298 298 298 297 297 297 297 297 297 297 298 298 298 298 298 299 299 299 299 299 299 299 299 299 299 300 300 300 301 301 301 302 302 302 302 301 302 301 301 301 301 302 301 301 301 301 302
283 283 282 281 281 283 284 281 280 282 283 284 285 285 285 284 283 284 284 285 284 283 282 282 281 281 279 285 289 293 294 295 296 296 297 297 298 298 298 298 298 298 298 297 297 297 297 297 297 297 297 298 298 298 298 298 298 298 299 299 299 299 299 299 299 299 300 300 300 301 301 301 301 301 301 301 301 301 301 301 301 301 301 301 301 301
285 285 285 282 282 282 284 282 281 281 282 283 284 284 283 282 282 283 284 285 285 284 282 282 282 282 281 284 288 292 294 295 295 296 297 297 297 298 298 298 298 297 297 297 297 297 297 297 297 297 297 297 297 298 298 298 298 298 298 298 298 298 298 298 298 298 299 299 299 299 299 299 300 300 300 300 300 300 300 300 301 301 301 301 301 301
285 286 286 285 283 282 283 283 282 280 281 282 282 282 280 280 282 284 285 285 284 284 283 282 282 282 283 284 287 291 293 294 295 296 296 297 297 297 298 298 297 297 297 297 297 297 297 297 297 297 297 297 297 297 297 297 297 297 297 297 297 297 297 298 298 298 298 298 298 298 298 298 299 299 299 299 299 299 300 300 300 300 300 300 301 301
286 286 286 285 284 283 282 281 281 281 281 281 281 280 280 281 283 284 285 285 284 284 285 284 283 282 284 285 287 290 293 294 295 296 296 297 297 297 297 297 297 297 297 296 296 296 297 297 297 297 297 297 297 297 297 297 297 297 297 297 297 297 297 297 297 297 297 297 297 297 297 298 298 298 298 298 299 299 299 299 300 300 300 300 301 301
286 286 286 286 285 285 283 282 282 282 282 282 282 282 282 283 284 285 285 285 285 285 286 285 284 284 284 285 288 291 293 294 295 295 296 296 296 296 296 296 296 296 296 296 296 296 296 296 297 297 297 297 297 297 297 297 297 296 296 296 296 297 297 297 297 297 297 297 297 297 297 297 297 298 298 298 298 298 299 299 299 300 300 300 300 300
286 286 286 285 285 285 285 284 284 284 284 284 285 285 285 284 284 284 284 285 285 285 285 285 285 284 284 285 288 290 291 293 293 294 295 295 295 295 295 295 296 296 296 296 296 296 296 296 296 297 297 296 296 296 296 296 296 296 296 296 296 296 296 296 296 296 296 296 296 296 296 297 297 297 297 297 298 298 298 298 299 300 300 300 300 300
286 285 285 285 285 285 285 285 285 285 285 285 286 286 286 285 285 284 283 282 282 282 283 284 284 284 284 284 286 288 288 289 289 290 291 292 293 293 294 295 295 295 295 295 295 295 296 296 296 296 296 296 296 296 296 296 296 296 296 296 296 296 296 296 296 296 296 296 296 296 296 297 297 297 297 297 297 298 298 298 298 299 299 299 299 300
285 285 285 284 285 285 285 286 286 285 285 285 285 285 285 285 285 285 283 282 281 280 281 283 284 284 284 283 284 285 287 287 288 288 288 289 289 290 293 294 295 295 295 295 295 295 295 295 295 295 295 295 295 295 295 295 295 295 295 295 295 295 296 296 296 296 296 296 296 296 296 296 297 297 297 297 297 297 298 298 298 298 299 299 299 299
284 284 285 285 285 285 285 286 286 285 285 285 285 284 284 284 284 284 284 284 283 282 282 283 283 284 284 283 283 284 286 288 289 290 291 291 291 292 293 293 293 293 294 294 294 294 294 294 294 294 295 295 295 295 295 295 295 295 295 295 295 295 295 295 295 295 295 296 296 296 296 296 297 297 297 297 297 297 297 297 297 298 298 298 299 299
285 285 285 286 286 286 286 287 287 286 284 283 283 283 284 284 284 284 283 283 283 283 283 283 283 284 284 283 283 283 285 285 286 288 291 291 292 293 293 292 292 292 293 293 293 293 293 293 293 293 294 294 294 294 294 294 294 294 294 295 295 295 295 295 295 295 295 295 296 296 296 297 297 297 297 297 297 297 297 297 297 297 297 298 298 298
286 286 286 287 287 287 287 287 287 286 284 283 283 283 283 283 284 284 283 283 283 283 284 284 284 283 284 283 283 283 284 283 283 284 285 287 288 289 289 289 289 290 290 291 291 291 292 292 292 293 293 293 293 293 293 293 294 294 294 294 295 295 295 295 295 295 295 295 296 296 296 297 297 297 297 297 297 297 296 296 296 296 297 297 298 298
287 287 288 288 288 288 288 287 286 286 285 284 284 284 284 284 284 284 284 284 284 284 284 284 283 283 283 282 282 283 283 283 283 283 283 284 284 284 283 284 284 284 285 285 286 287 290 291 292 292 292 292 292 293 293 293 293 294 294 295 295 294 294 294 294 294 295 295 296 296 297 297 297 297 297 297 296 296 296 296 296 296 296 296 296 297
288 288 288 288 288 288 288 287 287 286 285 285 285 285 285 285 285 285 285 285 284 284 284 283 283 283 282 282 282 283 283 283 283 283 283 282 282 282 282 282 282 283 282 282 282 284 289 290 290 290 291 291 291 292 292 293 293 294 294 294 294 294 294 294 294 294 295 295 296 296 296 296 296 296 296 296 296 295 295 295 295 295 295 296 296 296
287 288 287 287 287 287 287 287 287 287 287 287 287 287 287 287 287 286 286 285 284 284 283 283 283 283 283 284 283 283 283 283 282 282 282 282 282 281 280 280 281 282 282 283 283 285 288 288 287 287 288 289 289 290 292 292 293 294 294 294 294 294 294 294 294 295 295 295 296 296 296 295 295 295 295 295 295 295 295 295 295 295 295 295 295 295
288 288 287 287 287 287 287 287 287 287 288 288 289 288 286 286 286 285 285 285 284 284 284 284 284 284 284 284 284 283 283 282 281 280 280 281 281 280 278 280 281 282 283 283 284 284 286 285 285 286 286 288 290 292 293 293 294 294 294 293 294 294 294 294 294 295 295 295 295 295 295 294 294 294 294 294 294 294 294 294 295 295 295 295 295 295
287 286 286 285 285 286 287 287 287 287 288 287 288 287 286 285 285 285 286 286 286 285 285 285 284 284 284 284 284 283 282 281 280 279 279 280 281 281 279 280 281 282 283 284 284 284 285 285 285 286 286 289 291 292 293 293 293 293 293 293 293 293 294 294 294 294 295 294 294 294 294 294 294 294 294 294 294 294 294 295 295 295 295 296 296 296
286 285 285 285 286 286 286 287 287 287 287 287 286 285 285 286 286 286 287 287 287 286 286 285 284 284 284 284 283 282 280 280 280 280 279 280 281 281 280 280 281 282 283 283 284 284 284 284 284 285 287 291 292 292 292 292 293 293 293 293 293 294 294 294 294 294 294 294 293 293 293 293 293 294 294 294 294 294 295 295 295 295 296 296 296 296
287 287 287 286 286 287 287 286 285 285 286 287 287 286 287 288 288 288 287 287 287 286 286 285 285 285 284 284 283 282 281 281 281 280 279 280 281 282 282 282 282 283 282 283 284 284 284 284 286 289 291 292 292 292 292 292 292 292 293 293 293 293 294 293 293 293 293 293 293 293 293 293 294 294 294 294 294 295 295 295 295 295 296 296 296 296
287 287 287 287 286 286 286 287 287 287 287 288 288 288 288 288 288 287 287 287 287 287 286 286 285 285 285 284 284 283 282 282 281 281 280 280 281 282 281 282 282 282 281 283 283 283 283 283 284 287 290 290 291 291 291 292 292 292 293 293 293 293 293 293 293 293 293 293 293 293 293 293 294 294 294 294 294 295 295 295 295 295 295 296 296 296
286 286 286 286 286 286 285 286 287 288 289 289 289 288 288 288 287 287 286 286 286 286 286 285 285 285 285 284 284 283 282 283 284 283 283 283 283 282 281 281 280 280 281 282 282 283 282 282 282 284 288 289 290 291 291 291 292 292 293 293 292 292 292 292 292 292 292 292 293 293 293 293 294 294 294 294 294 295 295 295 296 296 296 296 296 296
285 285 285 285 285 286 287 286 287 289 290 290 289 288 288 288 287 287 286 286 286 286 285 285 285 285 285 284 284 283 282 285 285 284 283 282 281 280 281 281 280 280 280 281 282 281 281 281 281 283 287 289 290 291 291 292 292 292 292 292 292 292 292 292 292 292 292 292 292 293 293 293 294 294 294 294 295 295 295 296 296 296 296 296 296 296
285 285 285 285 286 286 287 288 288 289 290 290 290 289 289 288 288 287 288 287 287 287 286 285 285 285 285 284 284 284 284 285 285 284 283 280 279 279 280 281 281 281 280 281 281 281 281 281 281 283 286 289 290 290 291 291 292 292 292 292 292 291 291 291 292 292 292 292 292 293 293 293 294 294 294 295 295 295 296 296 296 296 297 297 296 296
285 285 286 286 287 287 288 289 289 289 290 290 290 290 290 290 290 289 289 289 288 288 287 285 284 284 283 283 283 284 284 284 284 282 282 281 280 280 280 281 282 281 281 281 280 280 279 280 281 283 285 287 289 290 291 291 291 291 291 291 291 291 291 291 291 291 292 292 292 292 293 293 294 294 294 295 295 295 295 296 296 296 296 296 296 296
288 288 288 288 289 290 290 291 291 292 292 291 291 291 291 291 291 291 291 290 288 287 286 285 284 283 281 283 283 282 282 282 283 283 281 280 279 279 279 280 280 280 280 279 278 278 278 280 281 283 283 285 287 289 290 290 291 291 291 291 291 291 291 291 291 291 291 292 292 292 293 294 294 294 295 295 295 295 295 295 295 295 295 295 295 296
293 293 292 293 293 295 295 295 296 296 295 294 293 292 292 291 290 289 288 287 286 286 285 284 283 282 281 282 282 282 281 281 282 283 282 280 278 277 277 277 278 279 280 278 278 279 279 280 281 282 281 282 285 288 289 290 290 290 290 290 290 290 290 291 291 291 291 292 292 293 293 293 294 294 294 294 294 294 294 294 294 294 294 294 294 294
295 295 295 295 295 295 296 296 296 296 296 295 295 294 293 291 289 287 286 285 285 284 284 283 282 282 282 282 282 281 281 281 282 281 280 279 278 277 277 277 278 278 278 278 278 280 281 282 282 282 281 280 281 284 288 289 289 290 290 290 290 290 290 290 290 291 291 292 292 292 293 293 294 294 294 294 293 293 293 293 293 293 293 293 292 292
294 294 294 294 294 294 294 294 294 294 294 294 294 294 293 291 288 286 285 284 285 284 283 283 282 282 282 281 280 280 279 281 281 281 280 279 278 277 276 276 276 277 277 277 279 281 283 283 282 280 279 278 279 282 286 288 289 289 289 289 289 289 290 290 290 291 291 292 292 292 293 293 293 293 293 293 293 293 293 293 293 293 292 292 291 290
292 292 292 292 293 293 293 293 293 293 293 293 293 293 292 290 288 286 285 285 285 284 284 283 283 282 281 280 279 279 279 280 281 280 279 278 277 276 276 276 276 276 276 277 278 279 280 281 279 276 276 279 281 282 283 286 287 287 288 288 289 289 289 289 290 290 291 291 292 292 292 293 293 293 293 292 292 292 292 292 292 292 291 290 290 289
288 289 289 290 290 290 290 289 290 291 292 292 292 292 291 289 287 287 286 286 285 285 284 283 283 282 281 280 279 278 278 279 279 279 279 278 277 276 276 276 276 275 275 278 278 278 279 279 278 277 277 281 282 282 281 282 283 284 284 285 287 288 288 289 290 290 290 291 291 291 292 292 292 292 292 292 292 292 292 292 292 291 290 289 289 288
285 286 286 286 286 286 286 286 287 288 289 290 290 290 289 287 286 286 286 286 285 285 284 284 283 283 282 280 279 278 278 278 279 280 278 278 278 277 278 277 276 275 275 278 279 279 279 279 279 279 280 281 281 281 281 282 281 281 281 282 284 286 288 288 289 289 290 290 291 291 291 292 292 292 292 292 292 292 292 292 291 290 289 288 287 287
284 285 285 285 285 285 285 286 286 286 286 287 287 287 288 287 286 286 286 286 286 285 285 284 283 282 282 281 280 279 279 278 280 281 279 278 278 279 279 279 278 277 277 279 280 280 279 278 279 280 280 280 280 280 281 282 281 280 281 282 283 285 287 288 288 288 289 289 290 290 291 291 291 291 291 291 291 292 292 291 291 290 288 287 287 286
283 284 283 284 284 284 284 284 284 284 285 285 285 285 286 286 286 287 286 286 285 285 284 283 282 281 280 280 280 279 280 279 281 283 282 280 280 280 280 280 280 280 280 282 282 282 281 280 280 280 280 280 280 280 280 281 281 281 281 282 283 284 286 287 287 287 288 288 289 289 290 290 291 291 291 291 291 291 291 291 291 290 289 287 286 286
281 282 282 282 282 281 281 282 282 283 284 284 285 285 285 284 285 285 286 284 284 283 283 282 282 281 280 280 280 280 280 279 282 286 285 282 281 281 281 281 281 281 282 282 282 281 280 280 280 280 280 280 280 279 279 280 281 281 281 282 283 283 284 285 285 286 286 287 287 287 289 289 290 290 289 290 290 290 290 290 291 290 290 288 287 286
280 281 281 281 282 282 283 282 282 283 284 284 284 284 284 284 283 283 284 283 283 283 282 282 282 282 281 281 280 280 280 279 282 285 286 282 281 281 282 282 282 282 282 281 280 280 279 280 280 280 280 280 280 279 279 279 280 281 281 282 283 283 284 284 284 285 285 285 285 286 287 288 288 288 288 288 289 290 290 290 290 290 290 289 288 287
280 280 281 282 283 283 284 283 283 283 283 283 283 283 283 282 282 282 282 282 283 283 284 283 283 283 282 282 281 281 281 280 281 283 284 282 282 282 282 283 283 283 281 280 279 279 279 279 280 280 280 279 279 279 280 280 281 281 281 282 283 283 284 284 284 284 284 284 285 285 286 287 287 286 287 288 288 289 289 289 289 289 289 289 289 288
279 280 281 282 282 283 283 283 282 282 283 283 282 282 282 281 281 281 281 280 280 281 283 283 283 283 284 282 281 281 281 280 280 281 283 282 282 283 282 282 282 282 281 280 280 280 280 279 279 279 279 279 279 279 280 281 281 281 281 282 283 283 283 284 284 284 283 283 284 285 286 286 286 286 286 287 287 287 287 288 288 288 288 288 288 288
279 280 280 281 281 282 282 282 282 282 282 282 282 282 281 281 281 280 280 279 279 279 280 281 281 281 283 284 283 281 281 280 280 281 282 282 282 283 282 281 280 280 280 280 280 280 280 279 278 278 278 278 279 280 281 281 281 280 281 282 283 282 282 282 283 283 283 283 284 284 285 285 285 285 285 285 285 284 284 284 285 286 287 287 287 288
279 280 280 281 282 282 281 281 281 282 282 282 282 282 281 281 281 281 280 280 280 280 279 279 279 280 280 281 282 283 282 281 281 281 280 280 281 281 281 279 277 276 276 277 277 278 279 279 278 278 278 278 279 280 281 281 281 280 281 282 282 282 282 282 282 283 282 282 283 284 284 284 284 284 283 283 283 282 282 282 283 284 285 284 284 285
280 280 281 282 282 281 280 281 282 282 282 282 283 283 282 282 282 282 282 282 281 281 279 279 280 280 280 281 281 280 279 279 279 279 277 277 277 277 277 276 275 275 275 273 274 276 277 278 278 278 279 279 279 280 281 281 281 282 282 281 281 281 282 282 282 282 281 281 281 282 283 283 283 283 283 283 282 282 282 281 282 282 283 282 281 281
281 281 282 282 282 282 282 282 282 282 282 282 282 282 282 282 282 281 281 281 281 281 280 280 280 279 279 278 276 276 276 276 276 276 274 273 273 273 275 275 274 274 273 273 274 276 278 279 279 279 280 280 280 281 281 281 282 282 283 281 280 280 281 282 282 281 281 281 281 282 283 283 283 283 283 283 282 282 282 281 281 282 283 282 280 279
282 282 282 281 281 281 282 282 283 283 283 282 281 281 281 281 280 279 279 279 279 279 278 277 277 277 277 277 276 275 274 274 274 275 273 272 271 270 271 273 274 274 273 273 275 277 279 280 280 280 280 280 280 280 280 281 281 282 282 281 280 280 281 281 281 280 280 280 281 281 282 282 282 282 282 282 282 282 283 281 282 283 284 282 280 279
282 282 281 281 281 282 283 283 283 282 282 281 280 280 280 280 281 280 278 276 276 277 277 275 274 274 274 274 274 275 274 272 272 272 273 271 270 270 272 272 272 272 273 274 276 278 279 281 281 280 279 280 280 280 280 281 281 281 280 280 280 279 278 279 279 280 280 280 280 280 281 281 281 282 282 282 282 282 282 282 283 284 284 282 280 279
282 282 281 281 282 282 282 281 280 280 280 280 279 279 280 280 281 280 276 275 275 275 274 273 273 272 272 272 272 272 273 273 271 271 273 276 276 275 273 272 270 271 272 275 277 279 279 279 278 278 279 280 280 280 280 279 278 278 277 279 278 277 276 278 279 279 279 279 279 280 280 281 281 281 281 281 281 281 281 281 280 280 282 281 280 280
282 282 282 282 282 281 280 279 279 279 279 278 278 278 279 278 278 278 276 274 274 274 273 272 272 272 271 271 270 270 271 272 273 273 273 277 279 279 275 273 271 271 272 276 278 279 279 278 277 277 277 278 278 278 277 276 275 276 278 279 278 277 276 278 278 278 279 279 279 279 280 281 281 281 280 279 279 279 279 280 280 280 281 280 280 279
282 282 281 281 280 279 279 279 278 278 277 277 277 277 278 276 276 276 276 275 274 273 272 271 271 271 271 271 269 269 270 272 273 275 276 275 275 275 276 276 276 275 274 276 277 279 279 279 279 278 278 277 276 274 273 273 273 274 275 276 276 276 276 277 277 278 278 278 279 279 280 280 280 280 280 280 279 279 279 279 279 279 280 280 280 280
280 280 279 279 279 278 278 278 278 277 277 276 276 276 277 276 275 275 274 274 273 273 273 271 270 269 269 269 268 268 269 271 273 274 275 276 276 275 275 276 277 278 277 278 278 279 280 280 280 279 279 278 275 273 272 272 272 273 274 274 275 275 276 276 276 277 277 278 278 279 279 280 279 279 279 279 279 279 279 280 279 279 279 280 280 281
280 280 279 279 279 278 278 277 277 276 275 274 274 275 276 277 277 276 273 271 271 271 272 270 268 268 268 268 268 269 271 271 272 273 274 275 276 276 276 276 277 278 279 280 280 281 281 280 280 280 279 278 275 273 272 272 272 273 273 273 274 276 277 277 277 277 277 277 277 278 279 279 279 279 279 279 279 279 280 280 280 280 280 280 280 280
280 280 279 279 278 277 277 276 276 275 274 273 273 274 274 277 278 276 273 270 268 268 269 268 268 268 268 268 269 271 273 272 272 272 273 274 275 276 277 277 278 278 278 278 278 279 280 280 280 280 280 278 275 273 273 273 272 272 272 272 273 275 277 277 277 277 277 277 277 277 277 279 279 280 280 279 279 279 280 280 280 280 280 280 280 281
280 279 279 278 278 277 276 276 276 275 274 273 273 273 274 275 274 273 272 270 268 267 266 267 267 268 269 269 270 271 272 271 271 272 273 275 276 276 276 276 276 276 276 277 278 279 278 278 278 280 282 281 279 276 274 273 272 272 271 271 273 275 277 277 277 277 277 277 277 277 276 278 279 280 280 280 279 280 280 280 280 281 281 281 281 282
279 279 278 278 277 277 276 276 276 276 275 275 274 274 274 273 272 271 270 270 269 268 267 266 267 268 270 270 271 272 272 271 271 273 274 276 277 277 277 276 275 274 274 276 277 277 277 276 277 277 279 284 284 281 275 274 273 272 272 272 273 275 277 278 278 278 278 278 278 277 277 278 279 280 280 280 280 280 280 280 280 280 281 281 282 283
Wind_Speed
2 2 1 2 2 2 3 3 3 3 4 4 3 3 3 4 4 5 6 6 6 5 5 5 5 6 7 11 13 16 17 19 20 21 21 21 20 20 19 19 19 19 18 19 19 18 18 18 18 18 17 17 17 17 17 17 17 17 18 18 18 18 18 18 19 19 20 20 20 20 20 21 21 21 22 22 22 22 22 22 22 21 22 22 23 23
2 2 1 2 3 3 4 3 3 3 4 4 4 3 3 3 3 4 5 5 6 5 5 5 5 5 6 9 12 16 18 19 20 21 21 21 20 20 19 19 19 19 19 19 19 19 18 18 18 17 17 17 17 17 17 17 17 17 17 18 18 18 18 18 19 19 19 19 20 20 20 21 21 21 22 22 22 22 22 21 21 21 22 23 23 23
2 2 2 2 3 3 4 3 3 4 4 4 3 3 2 3 4 5 5 5 5 5 5 5 5 5 6 8 12 16 18 19 20 21 21 20 20 20 19 19 19 19 19 19 19 19 18 18 18 17 17 17 17 17 17 17 17 17 17 18 18 18 18 18 18 19 19 19 19 20 20 21 21 21 22 22 22 22 22 21 21 22 22 23 24 24
2 2 3 2 3 3 4 3 3 2 3 3 3 3 3 3 4 5 5 6 6 6 6 6 6 6 6 7 10 14 17 19 20 20 21 20 20 20 20 19 19 19 19 19 19 19 18 18 18 17 17 17 17 17 17 17 17 17 17 18 18 18 18 18 18 18 19 19 19 20 20 21 21 21 22 22 22 22 21 21 21 22 23 23 24 24
2 2 2 2 2 3 3 3 2 1 1 2 3 3 3 4 4 5 5 6 6 6 6 6 6 6 6 6 9 13 17 19 20 20 21 20 20 20 20 19 19 19 19 19 19 19 18 18 17 17 17 16 16 16 17 17 17 17 17 18 18 18 18 18 18 18 19 19 19 20 20 21 21 21 22 22 22 22 22 22 22 23 23 24 24 24
3 2 2 2 2 2 2 1 1 1 2 2 3 4 4 4 4 5 5 6 6 6 6 5 5 6 6 7 10 13 16 18 19 20 20 20 20 20 20 19 19 19 19 19 19 19 18 18 17 17 16 16 16 16 17 17 17 17 18 18 18 18 18 18 18 18 19 19 20 20 21 21 21 22 22 22 22 22 22 22 23 23 23 24 24 25
3 2 2 2 2 2 2 2 2 2 2 3 4 4 5 4 4 5 5 5 5 5 5 5 5 5 6 8 10 12 14 16 17 18 19 19 19 19 19 19 19 19 19 19 19 19 18 17 17 17 16 16 16 17 17 17 17 17 17 17 17 17 18 18 18 19 19 20 20 21 21 21 21 22 22 22 22 22 23 23 23 23 23 24 24 24
4 4 3 3 3 3 3 3 3 3 3 4 5 5 5 4 4 5 5 5 4 4 4 5 5 5 6 6 7 8 9 10 11 12 13 14 15 16 16 17 18 18 19 19 19 18 18 17 17 17 17 17 17 17 17 17 17 17 17 17 17 17 18 18 18 19 20 20 20 21 21 21 21 22 22 22 22 23 23 23 23 22 23 23 24 24
5 5 4 3 3 4 4 4 4 4 4 5 5 5 6 5 5 4 4 4 4 3 3 4 5 5 5 5 5 5 6 7 7 7 8 8 9 10 13 14 16 17 18 18 18 18 17 17 17 17 17 17 17 17 17 17 17 17 18 17 18 18 18 18 19 19 20 20 21 21 21 21 21 22 22 22 23 23 23 22 22 21 21 22 22 23
5 5 5 4 4 4 5 5 5 4 5 5 5 5 5 5 5 5 5 5 4 3 3 4 4 5 5 4 3 4 5 7 8 10 11 10 11 12 13 13 14 14 17 17 17 17 17 17 17 17 17 17 17 17 17 17 17 18 18 18 18 18 18 19 19 20 20 21 21 21 21 21 22 22 22 22 22 22 22 21 20 20 20 20 21 21
5 5 5 5 4 4 4 5 5 4 4 3 3 3 4 4 5 6 7 6 5 4 4 4 4 5 5 4 3 3 3 4 6 8 10 12 13 14 14 13 13 14 16 16 16 16 16 16 16 16 17 17 17 17 17 17 17 18 18 18 18 18 19 19 20 20 20 21 21 21 22 22 22 22 22 22 22 22 21 21 20 20 20 20 20 21
5 4 4 4 4 4 3 4 3 3 2 2 2 3 3 4 4 5 6 6 6 5 5 4 4 4 5 4 3 3 3 3 4 4 5 6 8 9 9 9 10 11 11 12 12 13 14 15 15 15 15 16 16 17 17 17 17 18 18 18 18 19 19 20 20 20 21 21 21 21 22 22 22 22 22 22 21 21 21 21 21 21 21 21 21 22
5 4 4 4 4 3 3 3 3 2 2 2 3 4 4 3 3 4 5 5 6 5 5 4 4 4 4 4 3 2 2 3 3 3 3 3 4 4 3 4 4 5 5 6 6 7 10 12 13 13 14 15 15 16 17 17 17 18 18 19 19 19 20 20 20 20 21 21 21 21 21 21 21 21 21 21 21 21 22 22 22 22 22 22 23 23
4 4 3 4 4 3 3 3 3 3 3 3 3 4 4 3 3 3 4 5 5 5 4 4 4 4 3 3 3 3 3 3 3 3 3 3 3 2 2 2 3 3 3 3 3 4 7 8 8 9 12 13 14 15 16 16 17 18 19 19 20 20 20 20 20 21 21 21 21 21 21 21 21 21 21 21 22 22 23 23 23 23 23 23 24 24
4 3 4 5 4 4 4 4 4 4 4 4 3 3 3 3 3 3 4 5 5 4 4 5 5 4 3 3 3 4 4 3 2 2 3 3 3 2 1 1 2 2 2 3 3 4 6 6 5 6 7 9 11 13 15 16 18 19 19 20 20 20 20 20 20 20 20 20 20 20 20 21 21 22 22 23 23 23 23 24 24 24 24 24 24 24
3 3 4 5 5 5 4 4 4 5 4 4 3 3 3 4 4 4 5 5 5 4 4 4 5 5 4 4 4 4 4 3 2 2 2 3 2 1 2 1 1 2 2 3 3 4 4 4 4 5 6 9 12 15 17 18 19 20 20 20 20 20 20 20 20 20 20 20 20 20 21 21 22 22 23 23 23 24 24 24 24 24 24 24 24 25
3 3 4 5 5 5 5 5 4 4 4 4 3 3 3 4 4 4 5 5 4 4 4 4 4 5 4 3 3 3 3 3 2 2 2 2 2 1 3 2 1 3 3 3 3 4 4 4 4 5 6 10 14 17 18 19 19 20 20 20 20 19 19 19 19 19 19 19 20 20 21 22 22 23 23 23 23 24 24 24 24 24 24 24 24 24
4 4 4 5 5 5 5 5 4 4 3 3 3 3 3 4 4 5 5 5 4 4 4 3 3 4 4 3 2 1 2 3 2 1 1 2 2 1 2 2 1 3 3 4 3 3 4 4 4 5 7 13 16 18 19 19 20 20 19 19 19 19 19 19 19 19 19 19 20 21 21 22 22 23 23 23 23 23 23 24 24 24 23 23 23 23
4 4 5 5 5 5 5 4 3 3 3 3 3 3 4 4 4 4 4 4 4 5 5 4 4 4 4 3 2 1 2 2 2 0 1 3 3 2 1 1 1 2 3 3 4 4 4 4 5 8 11 14 16 18 19 19 19 19 18 18 18 18 18 18 18 19 19 20 20 21 21 22 22 22 22 23 23 23 23 23 23 23 23 23 23 22
6 5 5 6 6 6 5 4 4 4 4 4 4 5 5 5 4 4 4 3 4 4 5 5 5 5 4 3 2 1 2 2 2 1 1 3 3 2 1 1 1 2 3 3 3 3 3 3 5 7 11 13 15 17 18 18 18 18 17 17 17 17 18 18 18 19 19 20 20 21 21 22 22 22 22 22 23 23 23 23 23 23 23 23 22 21
7 7 5 5 5 5 6 5 5 5 6 6 6 6 6 5 5 5 4 3 4 4 4 5 5 5 4 3 2 2 3 3 2 1 2 2 3 2 1 1 1 2 3 3 3 3 3 3 3 4 7 12 15 17 18 17 17 17 17 17 17 17 18 18 19 19 19 20 20 21 21 21 21 21 22 22 22 23 23 23 23 23 23 23 22 21
6 6 6 5 5 6 6 6 7 7 8 7 7 6 5 5 5 5 5 4 4 4 5 5 6 5 4 3 2 2 3 3 2 2 1 2 3 3 1 1 1 1 2 3 3 2 2 2 3 4 8 12 15 16 17 17 16 16 16 17 17 18 18 18 19 19 19 20 20 20 20 20 21 21 21 22 22 22 23 23 23 23 23 22 21 20
6 7 7 6 6 7 7 8 7 7 8 8 8 7 5 5 6 6 5 5 5 5 6 5 4 3 2 2 2 2 2 3 3 2 1 2 3 3 2 1 1 1 2 2 2 2 2 2 3 5 8 13 15 16 16 16 15 16 16 17 18 18 18 19 19 19 19 19 19 20 20 20 20 20 21 21 21 22 22 22 21 21 21 19 19 18
7 8 8 7 7 7 7 7 7 7 7 7 8 7 7 7 7 6 5 5 5 4 4 4 3 2 2 2 2 2 2 3 3 3 2 2 3 3 2 1 1 2 3 2 2 2 2 3 4 4 6 10 13 14 14 14 15 15 17 17 18 18 18 18 19 19 19 19 19 19 19 20 20 20 20 20 20 20 20 20 20 21 20 19 17 15
7 7 7 7 8 9 10 10 10 9 8 7 7 7 7 7 7 7 5 4 4 3 3 3 3 3 2 2 2 2 2 2 3 3 2 2 2 2 1 1 1 1 2 2 2 1 2 3 4 4 5 7 10 12 13 13 15 16 17 18 18 18 18 18 18 19 18 19 19 19 19 19 19 19 19 19 19 19 19 20 20 20 20 20 19 17
10 10 10 11 14 16 18 18 18 16 15 12 9 6 5 5 4 4 3 3 3 3 3 3 3 3 2 1 1 2 2 2 3 3 3 2 1 2 2 1 1 1 2 2 2 1 2 3 4 4 4 5 6 9 11 13 15 16 17 18 18 18 18 18 18 18 18 18 18 18 19 19 19 19 19 19 19 19 20 20 19 19 19 18 17 17
16 16 17 17 18 18 18 18 18 18 18 16 13 10 7 5 4 3 3 2 2 2 2 3 3 3 2 1 2 2 1 1 2 3 3 2 1 2 2 1 0 0 1 2 2 2 3 4 4 4 4 3 4 6 10 13 15 16 17 17 17 18 18 18 18 18 18 18 18 18 18 18 19 18 18 19 19 19 20 19 19 18 16 14 13 13
14 14 15 15 15 15 15 14 14 14 15 15 15 14 10 6 5 5 4 3 2 2 3 3 3 3 2 2 2 2 1 1 2 2 3 2 1 2 2 1 0 0 1 2 2 3 3 4 4 3 3 2 3 4 8 12 14 15 16 16 17 17 17 18 18 17 17 17 18 18 18 18 18 18 18 18 19 19 19 19 18 16 13 10 7 6
11 13 14 14 14 14 12 11 11 11 12 12 13 12 8 5 4 5 5 3 2 3 3 4 4 3 2 2 1 1 2 2 2 2 3 2 1 2 1 1 0 0 0 1 2 2 2 3 2 2 2 3 3 3 5 9 10 11 12 13 15 15 16 17 17 17 17 17 17 17 17 17 18 18 18 18 19 19 19 19 17 14 9 7 5 5
8 10 11 11 11 11 10 8 8 9 10 10 10 9 6 3 3 3 4 3 3 3 4 4 4 3 2 1 0 1 2 2 2 2 3 2 1 1 1 0 0 0 0 1 2 2 2 2 2 1 2 3 3 4 4 5 6 6 7 9 10 12 15 16 16 16 16 17 17 17 17 17 17 17 18 18 18 19 19 19 16 11 6 5 4 4
6 7 7 7 7 7 6 6 6 6 7 8 7 6 4 3 2 3 3 3 3 4 4 4 4 3 3 2 1 1 1 2 2 2 3 2 1 1 1 0 1 1 1 0 1 2 3 2 2 2 2 3 4 4 4 4 4 4 3 5 6 8 13 14 15 15 15 16 16 17 17 17 17 17 18 18 18 19 19 18 15 11 6 5 5 5
5 6 6 6 6 5 5 4 4 4 4 5 4 4 4 3 3 3 3 3 3 3 4 4 3 3 2 2 2 1 1 2 2 2 3 2 1 1 1 1 0 1 1 1 1 2 2 2 2 2 3 3 4 4 4 4 3 3 3 4 5 7 11 12 12 12 12 13 15 15 16 16 17 17 18 18 18 18 18 18 16 12 7 5 5 5
5 5 5 6 5 5 4 4 3 3 4 3 3 3 3 3 3 3 2 2 2 2 2 2 1 1 1 1 1 1 1 2 2 3 3 2 1 0 0 0 0 1 1 1 1 1 1 2 3 3 4 3 3 3 3 3 3 3 3 4 4 6 9 9 9 9 9 10 11 12 14 15 15 16 17 17 18 18 18 18 16 14 9 6 5 5
5 6 6 5 5 4 4 3 3 3 3 3 3 3 2 2 2 3 2 2 1 1 1 1 1 1 1 1 0 0 1 2 2 1 1 1 1 0 0 0 1 1 1 1 1 1 2 2 3 3 4 3 3 3 3 3 3 2 2 3 4 5 6 6 6 6 7 7 7 7 9 10 11 13 14 15 16 17 17 17 17 15 13 9 7 6
5 5 5 5 4 4 4 3 3 3 3 3 3 3 3 2 2 2 3 2 2 2 2 2 1 1 1 1 0 0 1 2 3 3 3 2 1 1 1 1 1 1 1 1 1 2 2 3 4 4 4 4 3 3 3 2 2 2 3 4 4 4 5 5 5 5 6 6 6 6 6 6 7 9 11 13 15 16 17 17 17 16 15 13 10 8
5 5 5 5 5 5 4 3 4 4 4 3 3 3 3 3 3 3 3 3 3 3 3 2 2 2 1 1 1 1 1 2 2 3 3 1 1 0 1 1 1 1 1 1 1 2 2 3 4 5 5 4 4 4 3 3 3 3 4 4 4 4 4 4 4 5 5 6 6 6 6 6 6 7 9 12 14 15 16 16 16 16 15 15 14 12
4 4 5 4 4 4 3 3 3 3 3 2 2 2 2 3 3 3 3 3 3 3 3 3 3 3 3 2 2 1 1 1 2 2 2 1 1 1 1 1 1 1 1 1 2 2 2 3 3 4 4 4 4 4 4 4 4 4 4 4 4 4 3 4 4 4 4 6 6 7 7 7 7 7 8 12 13 13 14 14 14 14 15 15 14 14
4 5 5 4 3 3 2 2 2 2 2 2 2 2 2 2 3 3 3 3 3 3 3 3 3 4 5 5 4 2 1 1 2 2 3 2 1 1 1 1 1 1 1 1 2 2 2 3 3 4 4 4 4 5 5 4 4 5 5 5 4 3 3 3 3 4 4 5 6 7 7 7 6 6 7 8 8 8 8 9 10 11 13 13 13 14
5 5 5 4 3 2 1 1 2 2 2 2 2 1 1 2 2 2 2 3 3 3 3 3 3 3 4 4 5 4 4 3 3 4 3 3 2 1 1 1 1 1 1 1 1 2 2 2 3 3 3 4 4 4 4 4 4 5 5 5 4 3 3 3 3 4 4 4 6 7 7 6 5 5 5 6 6 6 7 7 8 9 9 8 9 11
5 5 4 3 2 1 1 1 2 2 2 2 2 1 1 1 2 2 3 3 3 3 3 2 2 2 3 3 4 4 4 4 4 3 3 2 1 1 0 0 1 1 1 1 1 2 2 3 3 3 4 4 4 4 3 3 4 5 6 5 4 4 5 5 4 4 3 4 5 6 6 6 5 5 6 6 6 6 6 6 6 7 8 6 5 7
5 4 3 2 2 2 2 2 2 2 2 2 2 2 2 2 2 2 2 3 3 3 3 3 2 2 2 3 3 3 3 3 4 3 2 1 0 0 1 1 1 1 1 1 1 2 2 3 3 4 4 4 4 5 4 4 5 6 7 5 5 5 6 6 5 4 4 4 4 5 7 7 7 7 6 7 6 6 6 5 6 7 7 4 4 4
5 3 2 1 2 2 2 2 2 2 3 3 3 3 3 2 2 2 2 2 3 3 3 3 3 3 3 3 3 3 4 4 4 3 2 1 1 1 1 1 1 1 1 1 1 2 3 3 4 4 4 4 4 4 3 4 4 5 5 5 5 6 6 6 4 4 4 5 5 5 7 7 7 7 7 7 6 6 6 6 7 7 7 5 4 3
3 2 1 1 2 2 3 3 3 3 3 3 3 3 3 2 2 2 2 2 2 2 3 2 2 2 3 3 3 4 5 4 4 3 3 2 2 2 2 2 2 2 2 1 1 2 2 4 4 4 3 3 3 3 4 4 4 4 3 4 4 5 4 4 5 5 5 5 5 5 6 6 6 6 6 6 6 5 6 6 8 8 7 5 4 4
2 2 2 2 3 3 4 4 3 3 3 3 3 3 3 3 3 2 2 2 2 2 2 2 2 2 3 3 3 4 5 5 5 4 3 3 2 2 2 2 2 2 3 2 1 2 2 3 3 3 2 2 3 3 4 4 4 3 3 3 3 3 3 4 5 6 6 5 5 5 5 6 7 6 5 5 5 5 5 5 5 6 6 5 4 4
2 2 2 3 4 4 4 4 3 3 3 3 3 3 3 3 3 3 2 2 2 2 3 2 2 2 3 3 3 3 4 4 5 4 4 4 5 4 2 1 2 3 3 2 2 2 2 3 2 2 1 1 1 2 3 3 3 3 3 4 4 3 3 4 4 5 6 6 6 6 6 7 7 6 5 4 4 4 5 5 6 6 6 5 4 4
3 3 4 4 4 4 4 4 3 3 3 4 3 3 3 3 3 3 3 3 3 3 3 2 3 3 3 3 3 3 4 4 4 5 4 5 4 4 3 2 2 3 3 3 3 3 3 3 2 2 2 2 2 2 3 3 2 3 3 4 4 4 4 4 4 4 5 6 6 7 7 7 6 6 5 5 5 5 5 5 6 6 6 5 5 5
4 4 4 4 4 4 4 4 4 4 4 4 4 3 4 3 3 3 4 4 3 3 3 3 3 3 3 2 2 3 4 4 5 5 5 5 5 4 3 3 2 2 3 3 3 3 3 3 3 2 2 2 2 3 3 2 2 2 3 3 4 4 4 4 4 4 4 5 6 7 8 7 6 6 6 6 5 5 5 5 5 5 5 5 5 5
5 5 5 4 4 4 4 4 4 4 4 3 3 3 4 4 5 5 4 3 3 3 3 4 4 3 3 3 2 3 4 4 4 5 5 5 5 5 4 4 4 3 3 3 2 3 3 3 3 3 3 2 2 2 3 2 2 1 2 3 3 4 5 5 4 4 4 4 5 6 6 6 6 6 7 6 6 6 6 6 6 5 4 5 5 5
5 5 5 5 5 5 4 4 4 4 4 3 3 3 4 5 6 6 4 3 3 3 3 3 3 3 3 3 3 4 4 4 4 4 4 4 4 4 4 4 4 4 3 3 2 1 1 2 3 3 4 4 3 2 3 3 2 2 2 2 3 4 5 5 5 4 4 5 5 5 5 5 5 5 6 6 7 7 7 6 6 5 5 5 5 5
5 5 5 5 5 4 4 4 4 4 4 4 4 4 4 4 4 4 4 3 3 3 3 3 3 3 3 4 4 4 5 4 4 4 4 4 4 4 4 4 4 4 3 3 3 2 2 2 1 2 4 5 5 3 2 2 2 2 2 2 2 3 5 5 5 5 5 5 6 6 5 4 4 5 5 6 7 7 8 7 7 6 6 5 6 6
5 5 5 4 4 4 4 4 4 4 4 4 4 4 4 4 4 4 4 4 4 3 3 2 2 3 3 4 4 5 5 4 4 4 4 4 4 4 4 4 4 3 3 3 3 3 3 3 3 2 2 4 4 3 1 0 2 3 3 3 3 3 4 5 5 5 6 5 5 5 5 5 5 5 5 5 6 7 8 8 8 8 7 7 7 8
Wind_Direction
243 244 200 177 198 244 254 230 229 247 269 272 273 271 272 276 276 273 272 273 272 269 269 267 267 269 272 276 279 282 285 288 290 292 293 294 295 296 297 298 300 303 305 306 306 305 303 302 301 301 301 301 301 301 301 301 302 303 304 306 308 309 310 310 309 308 307 306 306 307 307 307 307 306 307 307 307 307 307 310 311 312 311 308 306 304
252 252 231 181 195 228 258 237 220 224 252 266 274 279 289 292 290 287 283 275 268 263 262 264 265 265 264 271 278 282 285 287 289 290 291 292 293 293 295 296 299 302 304 305 305 304 303 301 301 300 300 301 301 301 302 302 304 305 307 308 310 310 310 309 309 308 308 308 308 308 308 308 307 307 307 306 306 306 307 309 309 309 307 305 304 303
259 262 251 201 199 217 253 249 227 216 229 252 267 281 297 294 290 287 287 284 279 272 265 264 265 266 265 269 277 282 284 286 288 289 290 290 291 292 294 296 298 301 303 304 304 304 302 301 300 300 300 301 301 302 303 304 306 307 309 310 310 310 309 309 308 308 308 309 309 309 308 308 307 306 305 304 304 304 305 307 307 305 304 303 302 302
252 258 256 232 217 221 238 245 239 224 222 247 262 271 272 273 276 277 278 282 284 284 279 270 266 266 268 270 275 280 283 286 287 288 289 290 291 292 294 296 298 300 303 303 304 303 302 301 300 300 300 301 302 303 305 306 308 309 310 310 310 310 309 308 309 309 309 309 309 308 308 307 305 305 304 303 303 303 304 305 304 303 302 302 301 301
253 255 258 257 251 244 236 236 235 239 241 251 257 259 256 258 266 273 276 277 279 281 281 276 269 265 268 271 276 280 282 285 286 288 289 290 291 293 295 296 298 300 302 303 303 302 302 301 300 300 301 302 303 305 307 309 310 310 311 311 310 310 309 309 309 310 309 309 308 307 306 305 304 303 302 302 302 303 304 304 303 303 302 302 302 301
266 261 265 268 271 271 262 239 230 241 265 261 256 253 253 255 262 270 275 275 275 275 277 277 273 269 269 271 276 279 282 284 286 288 289 291 292 294 295 296 297 299 301 302 302 302 302 302 302 302 303 304 306 308 310 311 312 312 312 312 311 311 311 311 311 310 310 308 307 306 305 304 303 303 302 302 303 303 304 304 304 304 304 304 303 302
272 268 275 276 277 278 280 264 248 247 265 273 271 266 261 258 258 260 262 266 269 273 276 276 276 273 271 270 274 277 281 284 286 288 289 291 292 293 293 294 296 297 299 301 302 303 303 303 304 305 307 308 310 311 312 313 313 313 313 313 313 312 312 311 311 310 309 308 307 306 305 304 303 303 303 303 304 304 304 305 306 306 306 306 304 303
276 277 276 279 283 283 278 267 253 244 246 261 270 274 272 265 260 258 256 258 260 265 271 275 276 274 270 268 270 273 276 281 284 286 288 289 289 288 288 290 293 296 299 302 303 304 304 305 307 309 310 311 312 313 313 314 314 315 315 315 314 313 312 311 311 310 308 307 306 306 305 305 304 304 304 304 304 305 305 306 307 308 308 307 305 303
273 278 278 272 276 282 283 272 253 236 232 242 251 261 271 273 272 269 265 264 259 252 253 266 273 274 271 267 265 265 266 268 270 273 277 277 276 278 281 286 291 296 300 302 303 304 305 307 309 311 312 312 313 313 314 315 315 316 316 315 314 313 312 311 310 309 308 307 307 306 306 305 305 305 305 305 305 305 306 307 308 309 309 306 304 302
264 270 276 269 262 263 273 275 263 242 225 233 240 247 257 270 278 280 278 274 266 253 242 251 263 272 274 269 264 260 262 264 267 270 273 274 275 277 281 287 293 297 299 301 302 304 306 308 309 311 311 312 312 313 314 315 315 315 315 314 313 312 311 310 310 309 308 308 307 306 306 306 306 306 306 305 305 306 307 308 308 308 306 304 302 300
262 262 266 267 260 250 250 261 260 248 223 232 241 245 242 251 263 273 277 276 273 266 256 248 252 260 271 270 266 260 259 264 268 271 274 276 279 281 285 289 292 295 296 298 301 303 305 307 308 309 310 311 312 313 314 315 314 313 312 312 311 311 310 310 310 309 309 308 308 307 307 307 307 307 306 306 307 307 308 308 307 306 304 302 300 299
260 260 258 262 261 258 250 255 254 245 213 233 257 261 247 233 236 249 263 268 271 270 267 258 249 247 252 256 259 260 257 261 265 268 271 274 276 279 284 287 290 291 293 296 298 300 302 304 305 307 309 310 311 312 313 313 312 311 310 310 310 310 310 311 310 310 309 308 308 308 308 308 308 308 308 308 309 309 309 307 306 304 303 301 300 300
255 258 261 265 268 269 271 275 276 269 243 242 254 261 259 237 223 227 245 256 261 263 264 264 258 249 240 235 236 242 250 257 261 263 263 265 266 268 274 279 282 283 286 290 291 293 296 300 303 306 308 309 310 310 310 310 309 309 308 309 310 311 311 311 311 310 309 308 309 309 310 310 310 310 310 310 310 309 308 306 305 303 302 301 301 301
260 264 267 271 274 277 279 281 281 275 262 250 248 250 251 241 230 232 248 257 258 256 256 261 263 261 254 236 226 224 232 248 258 262 262 260 255 251 248 263 269 271 274 276 276 280 287 296 301 304 305 306 307 307 306 307 307 308 309 310 311 312 312 312 311 310 309 309 310 311 312 312 312 312 311 311 310 308 307 306 304 303 302 301 300 299
261 266 271 275 279 283 286 285 281 275 268 261 256 252 252 250 247 248 259 265 264 260 257 261 263 263 259 242 227 218 218 228 244 260 266 263 253 232 196 235 259 267 268 271 275 280 287 294 295 295 297 299 300 302 304 305 308 310 311 312 313 313 312 311 310 310 310 311 312 313 314 313 313 312 311 310 309 308 307 305 304 302 301 299 297 296
262 273 281 287 289 289 290 287 284 281 278 273 266 262 263 266 262 259 259 264 265 263 259 264 267 266 258 240 225 211 201 199 209 233 257 266 256 205 145 170 253 273 274 278 281 285 290 290 287 287 289 295 300 303 305 308 310 312 312 313 313 312 311 310 310 311 312 313 314 315 314 313 312 311 310 309 308 307 306 304 303 301 299 297 295 293
284 289 292 292 291 289 288 285 281 279 281 280 274 267 261 266 267 266 264 264 265 263 256 256 263 269 270 259 239 211 175 168 176 200 235 263 261 204 139 151 245 276 282 283 285 286 288 289 289 290 290 296 302 305 308 311 312 313 313 313 313 312 311 311 312 314 315 316 316 315 314 312 311 311 310 309 308 307 305 304 302 300 298 295 293 292
288 287 287 285 284 285 289 289 287 285 283 279 274 267 261 261 263 266 267 267 267 267 264 258 257 262 271 275 266 215 145 146 151 182 249 271 269 242 148 158 225 267 278 281 282 282 283 284 286 289 292 301 305 308 310 312 313 313 313 313 313 312 313 314 316 317 318 317 316 314 313 312 311 310 310 309 308 307 305 303 301 299 297 295 294 292
284 283 284 285 286 288 291 290 287 281 274 271 271 274 276 271 268 264 264 263 264 265 267 265 262 259 259 260 260 218 143 140 133 137 269 271 272 266 180 180 233 263 273 276 279 280 280 281 285 290 295 302 306 309 311 312 313 314 314 314 314 315 316 318 319 320 319 317 316 314 313 312 312 312 311 310 309 307 305 303 302 300 298 297 296 295
287 285 285 288 290 290 286 281 276 274 274 276 278 278 278 276 271 266 262 259 257 258 261 263 263 263 260 254 247 207 156 140 136 167 248 264 269 267 224 193 228 260 272 275 275 275 276 276 284 292 298 303 306 309 311 313 314 315 316 316 317 319 320 322 322 321 320 318 316 315 314 313 313 313 312 310 309 307 305 303 301 300 298 297 296 296
285 283 280 282 284 284 281 278 275 275 277 280 278 274 270 270 269 266 261 256 252 250 248 253 255 256 253 247 237 206 171 152 158 205 251 264 267 266 237 189 210 251 272 273 272 269 268 271 275 286 295 303 307 310 312 314 316 317 319 320 321 322 323 323 323 321 320 318 317 316 315 314 314 313 312 310 308 306 305 304 302 300 298 296 295 294
279 278 276 272 269 271 274 274 272 271 271 271 270 267 264 265 265 263 258 254 251 249 246 245 244 240 230 220 214 203 177 169 176 198 232 264 268 266 249 193 199 243 266 271 271 269 268 272 277 287 296 303 307 310 313 316 318 320 321 323 324 324 324 324 323 322 320 319 318 317 315 315 314 313 312 310 309 308 308 309 308 306 302 299 296 293
265 268 270 265 261 261 264 267 267 265 263 261 259 259 258 258 258 258 255 252 252 252 249 246 240 227 201 197 202 204 189 179 172 171 191 248 262 263 250 198 201 239 258 264 271 281 292 288 286 290 297 303 307 310 314 317 320 322 324 325 325 325 325 324 323 323 322 320 319 317 316 316 315 314 313 312 312 314 316 320 322 322 320 313 305 297
254 259 262 259 257 255 258 262 262 261 257 253 252 252 252 251 252 253 253 254 256 259 261 261 256 244 218 207 211 218 212 182 163 156 178 234 253 257 248 206 224 253 262 261 268 288 304 295 291 290 294 300 305 309 314 318 322 325 326 326 326 326 325 325 324 323 322 321 319 318 318 318 317 317 316 316 319 324 329 335 341 345 346 340 332 321
258 259 261 262 261 262 264 266 267 267 264 258 255 253 253 253 255 257 260 262 265 270 278 277 270 262 256 227 226 234 234 187 167 163 178 223 249 259 262 192 189 240 265 269 276 291 303 296 293 291 290 297 303 309 315 321 324 326 327 327 326 326 326 326 325 324 323 321 321 321 321 321 321 322 323 326 330 335 341 345 351 354 356 355 352 347
292 291 292 289 287 286 287 286 286 286 287 286 282 277 273 268 265 264 267 266 266 267 269 266 261 256 252 238 238 243 245 194 179 175 175 193 242 268 275 219 180 216 266 280 286 290 295 292 291 290 288 294 304 312 319 324 326 326 326 326 326 326 326 326 325 324 323 322 323 324 325 326 327 329 332 336 340 343 346 349 352 355 357 358 358 356
310 311 311 310 309 309 309 309 308 307 306 307 308 309 309 311 307 299 285 269 254 242 245 248 249 244 228 223 230 238 243 206 191 183 165 160 208 261 269 251 187 200 271 284 280 273 279 283 284 285 288 294 304 314 321 324 325 325 324 324 325 326 326 326 325 325 324 325 326 327 329 331 333 336 340 343 345 347 347 349 351 353 355 356 356 355
320 322 323 323 322 321 320 320 320 320 319 319 320 321 325 327 322 312 298 285 258 231 229 234 235 231 217 214 223 241 259 231 210 189 150 137 182 247 259 261 148 124 265 283 277 270 270 273 276 280 289 293 299 310 320 323 322 322 321 322 324 325 326 326 326 326 326 328 329 331 333 334 337 340 343 345 347 348 348 349 350 352 353 351 347 341
325 324 322 321 319 317 315 314 312 311 312 315 318 323 330 330 319 309 302 295 271 243 234 229 224 218 206 209 227 262 277 250 219 181 135 129 182 246 257 273 137 120 197 300 296 288 277 270 269 276 287 298 306 315 318 319 318 316 316 319 322 324 326 326 327 327 329 330 331 333 335 337 339 341 344 345 347 347 348 349 350 351 350 345 337 329
323 321 318 315 312 309 305 301 299 299 303 309 315 320 325 320 303 294 294 287 269 250 241 231 221 209 190 178 193 285 280 263 230 170 135 139 191 243 250 267 240 186 96 340 324 312 300 288 277 272 280 309 319 320 315 311 308 307 309 315 319 322 325 326 327 329 330 331 332 334 336 337 339 341 343 344 345 346 347 349 350 350 345 337 330 327
313 310 306 304 301 299 295 292 293 297 304 310 314 317 317 303 283 274 277 269 260 252 247 237 224 208 186 166 159 195 257 264 240 178 140 151 193 223 194 210 238 224 152 63 328 312 307 305 299 294 304 320 320 315 307 303 301 303 306 312 317 321 324 326 327 329 329 331 332 334 336 337 339 341 342 343 343 344 346 348 348 348 342 336 331 327
303 300 295 294 294 294 295 298 301 307 310 310 309 306 303 298 287 274 266 260 257 255 254 247 235 215 186 163 158 173 221 253 232 197 152 149 177 210 171 163 232 254 197 177 239 284 303 311 317 321 326 321 315 307 302 301 301 304 311 318 319 321 323 325 327 327 328 329 331 333 335 337 338 340 341 341 341 342 344 346 346 346 343 337 331 327
302 298 293 292 292 293 296 302 308 312 311 308 304 302 306 308 306 301 291 282 278 278 277 266 250 204 128 116 129 170 238 265 240 209 170 142 132 187 163 144 282 284 259 223 228 260 297 312 316 317 317 313 307 303 300 301 301 305 316 323 321 320 321 324 325 325 325 327 328 330 332 335 337 339 339 339 339 340 342 343 344 344 344 338 332 328
302 298 295 294 293 293 295 301 306 310 311 314 320 327 336 338 339 342 357 11 18 13 357 354 30 80 98 88 75 311 291 304 307 305 134 104 92 28 303 276 280 288 289 290 300 312 308 307 308 308 307 308 305 300 295 295 299 308 316 320 318 316 316 320 322 323 324 326 325 325 328 333 337 338 338 337 337 338 339 341 341 342 342 340 336 331
302 301 300 299 298 297 299 306 313 319 321 328 337 346 356 4 8 12 20 29 40 50 55 45 46 57 87 96 75 347 320 315 336 355 30 51 49 348 311 295 307 329 345 343 337 324 308 302 303 305 307 309 308 303 292 290 300 312 315 313 310 308 310 315 320 324 327 328 326 324 326 331 335 336 335 334 334 335 336 337 338 338 339 338 337 333
303 304 304 302 300 299 301 311 319 323 325 334 344 354 4 11 15 18 19 20 29 40 50 47 41 37 42 53 42 15 346 319 328 346 15 30 23 325 310 331 5 16 4 336 316 303 294 298 302 305 308 309 309 307 304 307 316 321 318 312 307 305 306 313 321 327 330 330 329 327 328 331 333 331 328 329 330 330 331 332 333 334 335 335 334 332
302 303 303 300 298 298 303 313 317 319 322 334 346 360 12 19 23 25 24 22 27 34 43 43 41 38 41 52 53 37 347 316 311 323 350 352 346 329 321 337 350 352 327 298 292 291 291 296 301 304 305 306 306 308 312 321 327 327 320 314 309 307 308 318 326 332 333 332 330 328 328 329 327 325 322 325 326 327 327 328 328 329 330 330 330 329
304 303 300 294 290 290 296 303 307 314 327 342 357 10 21 31 37 39 38 37 38 41 46 43 41 39 39 49 55 55 36 3 352 353 2 3 2 354 336 324 321 317 278 271 277 282 284 291 297 301 302 301 301 304 311 320 324 321 315 313 311 310 314 323 330 335 337 333 330 326 325 324 320 318 317 321 322 323 324 324 325 326 328 327 327 326
302 300 297 295 295 295 298 304 316 329 344 352 2 18 40 59 64 61 55 49 46 44 45 48 50 48 43 46 46 44 38 26 19 16 17 17 14 5 347 315 297 290 281 262 256 256 260 268 277 286 293 297 299 302 308 315 317 315 314 315 317 320 325 329 333 336 339 334 329 325 322 317 314 313 315 318 321 322 323 321 322 324 326 325 324 325
300 298 296 308 324 347 352 347 350 354 353 353 7 29 65 75 67 58 50 46 42 37 31 35 47 58 57 51 43 35 26 18 14 15 20 22 25 41 117 184 238 260 269 259 240 237 243 254 262 272 282 288 293 298 304 310 313 316 318 321 323 326 329 329 331 335 340 334 327 323 320 316 316 317 320 320 320 319 318 317 317 318 320 320 323 325
298 299 306 334 3 19 20 14 12 10 6 8 19 30 32 35 35 34 33 30 26 20 12 12 17 23 27 24 18 12 8 3 2 2 2 360 350 181 165 183 204 220 231 246 250 250 250 259 266 272 277 280 286 291 297 304 311 315 320 322 319 317 318 321 326 335 340 332 326 322 321 321 322 323 322 319 315 309 305 305 305 307 310 312 317 323
300 311 340 3 16 20 19 22 29 35 40 42 42 38 26 15 12 15 23 21 15 9 7 9 12 14 11 359 351 346 346 345 345 343 334 311 248 201 195 207 206 200 188 226 256 260 257 260 264 268 270 275 281 286 292 298 305 311 317 318 319 317 314 318 326 337 339 330 324 322 324 323 323 321 319 314 308 303 301 300 302 304 309 311 313 312
314 352 23 26 29 29 29 32 34 37 42 45 42 33 15 3 6 24 46 35 18 7 4 11 21 28 24 360 345 337 333 328 325 325 320 290 253 232 231 228 209 184 161 200 262 268 256 262 263 263 261 270 277 285 293 299 301 303 307 321 329 331 324 324 329 334 332 325 322 320 322 321 318 314 309 304 300 299 301 302 303 304 307 304 304 303
16 46 46 43 44 42 39 36 33 34 41 44 38 25 4 357 7 27 58 47 25 9 2 1 23 42 39 8 344 333 329 324 322 321 315 308 304 293 262 233 202 180 166 190 248 277 275 272 267 263 261 271 281 288 293 293 295 296 301 321 330 327 308 312 319 325 324 322 320 319 319 318 315 309 301 295 296 299 303 305 304 303 303 300 299 300
46 56 51 52 52 49 46 40 37 37 40 39 30 14 359 355 4 20 39 36 25 13 2 2 22 36 27 359 341 330 328 326 327 328 325 327 333 334 316 251 205 190 183 200 227 254 272 274 276 279 300 303 281 271 269 274 282 292 302 317 320 310 288 296 307 316 319 320 320 320 320 317 315 311 307 306 306 307 305 305 305 305 305 307 307 307
55 54 51 52 53 52 49 44 40 40 40 36 26 13 1 2 11 22 28 27 23 16 6 20 40 45 26 354 339 334 335 333 333 334 334 333 334 333 321 282 240 217 205 213 222 233 244 256 267 287 321 324 299 269 250 252 266 288 302 316 320 316 304 303 305 310 313 316 318 319 320 319 317 317 320 320 319 313 305 300 299 299 303 307 310 311
57 57 56 57 56 53 47 42 41 41 39 33 24 15 9 13 22 29 27 23 20 17 15 30 42 47 33 2 343 337 338 337 336 335 334 332 332 330 326 314 294 269 240 232 228 229 236 241 247 259 280 295 298 290 275 260 260 281 301 314 319 320 316 312 308 307 307 310 314 318 322 325 326 327 326 324 321 316 310 305 300 298 299 306 311 313
57 59 59 59 57 53 47 41 40 39 35 26 19 15 16 24 30 31 24 16 16 21 25 28 31 29 18 359 341 334 337 335 332 330 330 329 330 332 335 334 327 314 295 280 263 250 242 238 234 231 227 225 245 271 282 284 285 292 302 310 317 320 319 313 310 308 307 306 309 314 321 326 328 327 326 324 323 321 317 314 311 308 308 312 314 314
54 55 56 56 55 52 45 40 38 37 31 23 17 15 18 28 33 34 26 19 24 33 36 31 25 18 7 350 339 336 340 337 331 327 326 326 328 333 338 340 339 335 326 323 318 303 264 246 227 216 208 197 202 230 272 286 298 308 309 303 310 316 320 316 313 312 313 312 312 313 316 317 317 317 318 320 321 320 319 318 317 316 316 317 315 312
52 51 51 52 52 49 44 40 37 34 29 24 21 18 18 22 23 23 21 25 32 39 41 34 27 17 4 349 343 343 345 341 336 332 329 329 332 336 340 344 346 344 340 347 355 1 358 347 295 233 214 201 197 203 250 285 309 323 323 304 302 309 317 316 315 316 319 317 316 315 315 314 313 314 316 317 317 318 321 322 321 321 320 321 319 316
50 48 47 47 47 45 40 38 35 32 28 27 26 23 20 16 13 12 14 19 22 23 23 20 17 12 1 351 347 344 343 338 335 333 331 331 333 337 341 348 351 353 355 2 7 9 5 1 352 329 271 229 210 195 172 253 341 344 337 323 313 311 315 315 316 317 319 317 315 315 317 318 319 320 321 318 318 320 325 325 324 322 321 322 321 319